When you browse on this site, cookies collect data to enhance your experience and personalize the content and advertising you see.
Visit our Privacy Policy to learn more. By continuing to use the site, you agree to this use of cookies and data.
  • In Hungary
  • List of Countries
  • For 7 days
  • Water Temperature
  • Satellite Maps
  • Weather Map
  • News
  • Weather Widgets
  • user-avatar
    Login

    Hourly Weather Urnyak

    Today, 20 January, Sunday

    Time Temperature Precipitation Wind Pressure Humidity
    00:00 -15°C° 0 mm 2 mps 740 mmHg 93%
    01:00 -16°C° 0 mm 2 mps 740 mmHg 93%
    02:00 -16°C° 0 mm 2 mps 740 mmHg 94%
    03:00 -16°C° 0 mm 2 mps 740 mmHg 95%
    04:00 -16°C° 0 mm 2 mps 741 mmHg 96%
    05:00 -15°C° 0 mm 2 mps 741 mmHg 97%
    06:00 -15°C° 0 mm 2 mps 741 mmHg 97%
    07:00 -15°C° 0 mm 2 mps 741 mmHg 97%
    08:00 -15°C° 0 mm 3 mps 742 mmHg 96%
    09:00 -14°C° 0 mm 3 mps 742 mmHg 96%
    10:00 -13°C° 0 mm 3 mps 742 mmHg 93%
    11:00 -14°C° 0 mm 4 mps 743 mmHg 91%
    12:00 -12°C° 0 mm 4 mps 743 mmHg 88%
    13:00 -14°C° 0 mm 4 mps 743 mmHg 90%
    14:00 -13°C° 0 mm 3 mps 743 mmHg 92%
    15:00 -14°C° 0 mm 3 mps 743 mmHg 93%
    16:00 -15°C° 0 mm 3 mps 743 mmHg 94%
    17:00 -16°C° 0 mm 3 mps 743 mmHg 95%
    18:00 -17°C° 0 mm 3 mps 743 mmHg 96%
    19:00 -17°C° 0 mm 3 mps 743 mmHg 96%
    20:00 -16°C° 0 mm 3 mps 743 mmHg 95%
    21:00 -17°C° 0 mm 4 mps 742 mmHg 94%
    22:00 -16°C° 0 mm 4 mps 742 mmHg 93%
    23:00 -15°C° 0 mm 5 mps 742 mmHg 92%

    Tomorrow, 21 January, Monday

    Time Temperature Precipitation Wind Pressure Humidity
    00:00 -14°C° 0 mm 5 mps 742 mmHg 91%
    01:00 -14°C° 0 mm 5 mps 742 mmHg 90%
    02:00 -13°C° 0 mm 5 mps 742 mmHg 90%
    03:00 -13°C° 0 mm 5 mps 741 mmHg 89%
    04:00 -13°C° 0.1 mm 5 mps 741 mmHg 89%
    05:00 -14°C° 0.1 mm 5 mps 741 mmHg 89%
    06:00 -14°C° 0.1 mm 5 mps 741 mmHg 89%
    07:00 -14°C° 0.1 mm 5 mps 741 mmHg 89%
    08:00 -13°C° 0.1 mm 5 mps 741 mmHg 90%
    09:00 -13°C° 0.1 mm 5 mps 741 mmHg 90%
    10:00 -13°C° 0.1 mm 5 mps 741 mmHg 90%
    11:00 -12°C° 0.1 mm 5 mps 741 mmHg 89%
    12:00 -12°C° 0.1 mm 5 mps 741 mmHg 89%
    13:00 -12°C° 0.1 mm 5 mps 740 mmHg 90%
    14:00 -12°C° 0.1 mm 5 mps 740 mmHg 90%
    15:00 -11°C° 0.1 mm 4 mps 740 mmHg 90%
    16:00 -12°C° 0.1 mm 4 mps 740 mmHg 91%
    17:00 -12°C° 0.1 mm 3 mps 739 mmHg 93%
    18:00 -13°C° 0.1 mm 3 mps 739 mmHg 94%
    19:00 -13°C° 0.1 mm 3 mps 739 mmHg 95%
    20:00 -13°C° 0.1 mm 2 mps 739 mmHg 95%
    21:00 -13°C° 0.1 mm 2 mps 739 mmHg 96%
    22:00 -11°C° 0.1 mm 1 mps 738 mmHg 96%
    23:00 -11°C° 0.1 mm 1 mps 738 mmHg 97%

    Day after tomorrow, 22 January, Tuesday

    Time Temperature Precipitation Wind Pressure Humidity
    00:00 -12°C° 0.1 mm 1 mps 738 mmHg 97%
    01:00 -12°C° 0.1 mm 1 mps 738 mmHg 97%
    02:00 -15°C° 0.1 mm 2 mps 738 mmHg 97%
    03:00 -15°C° 0.1 mm 2 mps 738 mmHg 97%
    04:00 -17°C° 0 mm 2 mps 738 mmHg 97%
    05:00 -18°C° 0 mm 2 mps 738 mmHg 98%
    06:00 -19°C° 0 mm 2 mps 738 mmHg 98%
    07:00 -20°C° 0 mm 2 mps 738 mmHg 98%
    08:00 -21°C° 0 mm 2 mps 739 mmHg 98%
    09:00 -24°C° 0 mm 3 mps 739 mmHg 98%
    10:00 -24°C° 0 mm 3 mps 739 mmHg 97%
    11:00 -23°C° 0 mm 3 mps 740 mmHg 96%
    12:00 -22°C° 0 mm 3 mps 740 mmHg 95%
    13:00 -22°C° 0 mm 3 mps 740 mmHg 95%
    14:00 -23°C° 0 mm 3 mps 741 mmHg 95%
    15:00 -23°C° 0 mm 3 mps 741 mmHg 95%
    16:00 -24°C° 0 mm 3 mps 742 mmHg 96%
    17:00 -25°C° 0 mm 3 mps 742 mmHg 96%
    18:00 -26°C° 0 mm 3 mps 743 mmHg 97%
    19:00 -26°C° 0 mm 3 mps 743 mmHg 97%
    20:00 -27°C° 0 mm 3 mps 743 mmHg 97%
    21:00 -27°C° 0 mm 3 mps 744 mmHg 98%
    22:00 -29°C° 0 mm 3 mps 744 mmHg 98%
    23:00 -30°C° 0 mm 3 mps 745 mmHg 98%

    23 January, Wednesday

    Time Temperature Precipitation Wind Pressure Humidity
    00:00 -28°C° 0 mm 2 mps 745 mmHg 98%
    01:00 -28°C° 0 mm 2 mps 745 mmHg 98%
    02:00 -29°C° 0 mm 2 mps 746 mmHg 98%
    03:00 -29°C° 0 mm 2 mps 746 mmHg 98%
    04:00 -29°C° 0 mm 2 mps 746 mmHg 98%
    05:00 -29°C° 0 mm 2 mps 746 mmHg 98%
    06:00 -28°C° 0 mm 2 mps 746 mmHg 98%
    07:00 -28°C° 0 mm 2 mps 747 mmHg 98%
    08:00 -27°C° 0 mm 2 mps 747 mmHg 97%
    09:00 -26°C° 0 mm 2 mps 748 mmHg 97%
    10:00 -25°C° 0 mm 3 mps 748 mmHg 96%
    11:00 -24°C° 0 mm 3 mps 748 mmHg 95%
    12:00 -22°C° 0 mm 3 mps 748 mmHg 94%
    13:00 -22°C° 0 mm 3 mps 749 mmHg 94%
    14:00 -22°C° 0 mm 3 mps 749 mmHg 94%
    15:00 -22°C° 0 mm 3 mps 749 mmHg 94%
    16:00 -23°C° 0 mm 3 mps 749 mmHg 95%
    17:00 -25°C° 0 mm 3 mps 750 mmHg 96%
    18:00 -26°C° 0 mm 3 mps 750 mmHg 97%
    19:00 -25°C° 0 mm 2 mps 750 mmHg 97%
    20:00 -26°C° 0 mm 2 mps 751 mmHg 97%
    21:00 -26°C° 0 mm 2 mps 751 mmHg 97%
    22:00 -26°C° 0 mm 2 mps 751 mmHg 97%
    23:00 -26°C° 0 mm 2 mps 751 mmHg 97%

    24 January, Thursday

    Time Temperature Precipitation Wind Pressure Humidity
    00:00 -26°C° 0 mm 2 mps 751 mmHg 97%
    01:00 -26°C° 0 mm 2 mps 751 mmHg 98%
    02:00 -25°C° 0 mm 2 mps 751 mmHg 98%
    03:00 -26°C° 0 mm 3 mps 751 mmHg 98%
    04:00 -25°C° 0 mm 3 mps 751 mmHg 97%
    05:00 -23°C° 0 mm 3 mps 751 mmHg 96%
    06:00 -23°C° 0 mm 4 mps 751 mmHg 95%
    07:00 -22°C° 0.1 mm 4 mps 751 mmHg 94%
    08:00 -20°C° 0.1 mm 4 mps 751 mmHg 93%
    09:00 -20°C° 0.1 mm 5 mps 751 mmHg 92%
    10:00 -20°C° 0 mm 5 mps 750 mmHg 90%
    11:00 -19°C° 0 mm 5 mps 750 mmHg 89%
    12:00 -20°C° 0 mm 6 mps 750 mmHg 87%
    13:00 -20°C° 0 mm 6 mps 750 mmHg 86%
    14:00 -18°C° 0 mm 6 mps 750 mmHg 84%
    15:00 -18°C° 0 mm 6 mps 749 mmHg 83%
    16:00 -20°C° 0 mm 6 mps 749 mmHg 82%
    17:00 -20°C° 0 mm 6 mps 749 mmHg 82%
    18:00 -19°C° 0 mm 5 mps 749 mmHg 81%
    19:00 -19°C° 0 mm 5 mps 749 mmHg 82%
    20:00 -19°C° 0 mm 5 mps 749 mmHg 82%
    21:00 -19°C° 0 mm 5 mps 749 mmHg 82%
    22:00 -19°C° 0.1 mm 5 mps 749 mmHg 85%
    23:00 -19°C° 0.1 mm 5 mps 749 mmHg 87%

    25 January, Friday

    Time Temperature Precipitation Wind Pressure Humidity
    00:00 -19°C° 0.1 mm 5 mps 749 mmHg 90%
    01:00 -18°C° 0.2 mm 4 mps 749 mmHg 91%
    02:00 -19°C° 0.2 mm 4 mps 749 mmHg 92%
    03:00 -19°C° 0.2 mm 4 mps 749 mmHg 93%
    04:00 -18°C° 0.1 mm 3 mps 750 mmHg 94%
    05:00 -19°C° 0.1 mm 3 mps 750 mmHg 95%
    06:00 -18°C° 0.1 mm 2 mps 750 mmHg 96%
    07:00 -18°C° 0 mm 2 mps 750 mmHg 96%
    08:00 -17°C° 0 mm 1 mps 750 mmHg 97%
    09:00 -17°C° 0 mm 1 mps 750 mmHg 97%
    10:00 -16°C° 0 mm 1 mps 750 mmHg 95%
    11:00 -15°C° 0 mm 1 mps 751 mmHg 94%
    12:00 -15°C° 0 mm 1 mps 751 mmHg 92%
    13:00 -15°C° 0 mm 1 mps 751 mmHg 93%
    14:00 -15°C° 0 mm 1 mps 751 mmHg 94%
    15:00 -15°C° 0 mm 1 mps 751 mmHg 95%
    16:00 -17°C° 0 mm 1 mps 751 mmHg 95%
    17:00 -20°C° 0 mm 2 mps 751 mmHg 96%
    18:00 -23°C° 0 mm 2 mps 751 mmHg 96%
    19:00 -24°C° 0 mm 2 mps 751 mmHg 95%
    20:00 -25°C° 0 mm 2 mps 751 mmHg 95%
    21:00 -25°C° 0 mm 2 mps 751 mmHg 94%
    22:00 -26°C° 0 mm 2 mps 751 mmHg 92%
    23:00 -26°C° 0 mm 2 mps 751 mmHg 91%
    Show more